Weather History for Pawtucket, RI

Change the Weather History Date:

Friday, March 7, 2014

  Actual Average Record
Temperature  
Mean Temperature 22 °F -  
Max Temperature 35 °F 39 °F 60 °F (2009)
Min Temperature 8 °F 23 °F 3 °F (2003)
Degree Days  
Heating Degree Days 44    
Moisture  
Dew Point 14 °F    
Average Humidity 65    
Maximum Humidity 85    
Minimum Humidity 48    
Precipitation  
Precipitation 0.00 in - - ()
Sea Level Pressure  
Sea Level Pressure 30.24 in    
Wind  
Wind Speed 2 mph (NE)    
Max Wind Speed 9 mph    
Max Gust Speed -    
Visibility 10 miles    
Events      
Averages and records for this station are not official NWS values.
T = Trace of Precipitation, MM = Missing Value Source: NWS Daily Summary

Daily Weather History Graph

Daily Weather History Graph

Search for Another Location

Airport:

Trip Planner

Search our weather history database for the weather conditions in past years. The results will help you decide how hot, cold, wet, or windy it might be!

Date:

Astronomy

Mar. 07, 2014 Rise Set
Actual Time 6:11 AM EST 5:43 PM EST
Civil Twilight 5:43 AM EST 6:11 PM EST
Nautical Twilight 5:11 AM EST 6:43 PM EST
Astronomical Twilight 4:38 AM EST 7:15 PM EST
Moon 9:56 AM EST (3/7) No Moon Set
Length of Visible Light 12h 27m
Length of Day
11h 32m
Waxing Crescent, 42% of the Moon is Illuminated
Mar 7
Waxing Crescent
Mar 8
First Quarter
Mar 16
Full
Mar 23
Last Quarter
Mar 30
New

Hourly Weather History & Observations

Time (EST) Temp. Windchill Dew Point Humidity Pressure Visibility Wind Dir Wind Speed Gust Speed Precip Events Conditions
12:15 AM 12.2 °F - 6.8 °F 79% 30.48 in 10.0 mi Calm Calm - N/A   Clear
12:35 AM 10.4 °F - 5.0 °F 79% 30.48 in 10.0 mi Calm Calm - N/A   Clear
12:55 AM 10.4 °F - 5.0 °F 79% 30.48 in 2.5 mi Calm Calm - N/A   Clear
1:15 AM 10.4 °F - 5.0 °F 79% 30.49 in 9.0 mi Calm Calm - N/A   Clear
1:35 AM 10.4 °F - 5.0 °F 79% 30.48 in 10.0 mi Calm Calm - N/A   Clear
1:55 AM 10.4 °F - 3.2 °F 73% 30.47 in 10.0 mi Calm Calm - N/A   Clear
2:15 AM 10.4 °F - 5.0 °F 79% 30.46 in 10.0 mi Calm Calm - N/A   Clear
2:35 AM 12.2 °F - 3.2 °F 67% 30.44 in 3.0 mi Calm Calm - N/A   Clear
2:55 AM 10.4 °F 2.2 °F 1.4 °F 67% 30.42 in 10.0 mi North 4.6 mph - N/A   Clear
3:15 AM 10.4 °F - 6.8 °F 85% 30.41 in 10.0 mi Calm Calm - N/A   Clear
3:35 AM 10.4 °F - 6.8 °F 85% 30.41 in 10.0 mi Calm Calm - N/A   Clear
3:55 AM 8.6 °F - 3.2 °F 79% 30.42 in 10.0 mi Calm Calm - N/A   Clear
4:15 AM 8.6 °F - 5.0 °F 85% 30.41 in 10.0 mi Calm Calm - N/A   Clear
4:35 AM 10.4 °F - 3.2 °F 73% 30.41 in 10.0 mi Calm Calm - N/A   Clear
4:55 AM 10.4 °F - 3.2 °F 73% 30.40 in 10.0 mi Calm Calm - N/A   Clear
5:15 AM 8.6 °F - 1.4 °F 73% 30.40 in 10.0 mi Calm Calm - N/A   Clear
5:35 AM 10.4 °F - 3.2 °F 73% 30.39 in 10.0 mi Calm Calm - N/A   Clear
5:55 AM 10.4 °F - 3.2 °F 73% 30.38 in 10.0 mi Calm Calm - N/A   Clear
6:15 AM 8.6 °F - 3.2 °F 79% 30.38 in 10.0 mi Calm Calm - N/A   Clear
6:35 AM 10.4 °F - 6.8 °F 85% 30.38 in 10.0 mi Calm Calm - N/A   Clear
6:55 AM 12.2 °F - 5.0 °F 73% 30.39 in 10.0 mi Calm Calm - N/A   Clear
7:15 AM 12.2 °F 6.1 °F 6.8 °F 79% 30.39 in 10.0 mi NNE 3.5 mph - N/A   Clear
7:35 AM 15.8 °F 10.2 °F 8.6 °F 73% 30.38 in 10.0 mi NNE 3.5 mph - N/A   Clear
7:55 AM 15.8 °F 10.2 °F 6.8 °F 68% 30.37 in 10.0 mi NNE 3.5 mph - N/A   Clear
8:15 AM 15.8 °F 7.2 °F 6.8 °F 68% 30.36 in 10.0 mi North 5.8 mph - N/A   Clear
8:35 AM 17.6 °F 10.7 °F 6.8 °F 63% 30.35 in 10.0 mi NNE 4.6 mph - N/A   Clear
8:55 AM 19.4 °F 12.8 °F 6.8 °F 58% 30.34 in 10.0 mi North 4.6 mph - N/A   Clear
9:15 AM 21.2 °F 13.6 °F 8.6 °F 58% 30.34 in 10.0 mi North 5.8 mph - N/A   Clear
9:35 AM 23.0 °F 18.4 °F 6.8 °F 50% 30.35 in 10.0 mi NNW 3.5 mph - N/A   Clear
9:55 AM 24.8 °F 19.1 °F 10.4 °F 54% 30.33 in 10.0 mi North 4.6 mph - N/A   Clear
10:15 AM 24.8 °F - 12.2 °F 59% 30.33 in 10.0 mi Calm Calm - N/A   Clear
10:35 AM 26.6 °F 21.2 °F 12.2 °F 55% 30.32 in 10.0 mi NNE 4.6 mph - N/A   Clear
10:55 AM 28.4 °F 23.3 °F 14.0 °F 55% 30.32 in 10.0 mi SSE 4.6 mph - N/A   Clear
11:15 AM 30.2 °F 21.9 °F 17.6 °F 60% 30.32 in 10.0 mi ESE 9.2 mph - N/A   Clear
11:35 AM 30.2 °F 26.7 °F 17.6 °F 60% 30.31 in 10.0 mi ESE 3.5 mph - N/A   Clear
11:55 AM 30.2 °F 25.4 °F 17.6 °F 60% 30.29 in 10.0 mi SE 4.6 mph - N/A   Clear
12:15 PM 30.2 °F 25.4 °F 15.8 °F 55% 30.26 in 10.0 mi ESE 4.6 mph - N/A   Clear
12:35 PM 32.0 °F - 19.4 °F 60% 30.24 in 10.0 mi Calm Calm - N/A   Clear
12:55 PM 32.0 °F 27.5 °F 17.6 °F 55% 30.23 in 10.0 mi East 4.6 mph - N/A   Clear
1:15 PM 33.8 °F 30.8 °F 17.6 °F 52% 30.22 in 10.0 mi East 3.5 mph - N/A   Clear
1:35 PM 33.8 °F - 17.6 °F 52% 30.20 in 10.0 mi Calm Calm - N/A   Scattered Clouds
1:55 PM 33.8 °F 29.6 °F 17.6 °F 52% 30.19 in 10.0 mi East 4.6 mph - N/A   Overcast
2:15 PM 33.8 °F 30.8 °F 17.6 °F 52% 30.17 in 10.0 mi North 3.5 mph - N/A   Overcast
2:35 PM 33.8 °F 29.6 °F 17.6 °F 52% 30.15 in 10.0 mi NE 4.6 mph - N/A   Overcast
2:55 PM 35.6 °F 30.7 °F 17.6 °F 48% 30.15 in 10.0 mi East 5.8 mph - N/A   Overcast
3:15 PM 35.6 °F 31.7 °F 17.6 °F 48% 30.14 in 10.0 mi NE 4.6 mph - N/A   Overcast
3:35 PM 35.6 °F 31.7 °F 17.6 °F 48% 30.13 in 10.0 mi NNE 4.6 mph - N/A   Overcast
3:55 PM 35.6 °F 29.9 °F 19.4 °F 52% 30.11 in 10.0 mi NE 6.9 mph - N/A   Mostly Cloudy
4:15 PM 35.6 °F 29.9 °F 17.6 °F 48% 30.11 in 10.0 mi NNE 6.9 mph - N/A   Mostly Cloudy
4:35 PM 35.6 °F 30.7 °F 19.4 °F 52% 30.10 in 10.0 mi NNE 5.8 mph - N/A   Mostly Cloudy
4:55 PM 35.6 °F 31.7 °F 17.6 °F 48% 30.10 in 10.0 mi NE 4.6 mph - N/A   Partly Cloudy
5:15 PM 33.8 °F 29.6 °F 19.4 °F 56% 30.10 in 10.0 mi ENE 4.6 mph - N/A   Mostly Cloudy
5:35 PM 35.6 °F 31.7 °F 19.4 °F 52% 30.10 in 10.0 mi NE 4.6 mph - N/A   Overcast
5:55 PM 33.8 °F 29.6 °F 19.4 °F 56% 30.09 in 10.0 mi NE 4.6 mph - N/A   Overcast
6:15 PM 35.6 °F 30.7 °F 19.4 °F 52% 30.09 in 10.0 mi NNE 5.8 mph - N/A   Overcast
6:35 PM 33.8 °F 29.6 °F 19.4 °F 56% 30.09 in 10.0 mi NE 4.6 mph - N/A   Overcast
6:55 PM 33.8 °F 29.6 °F 21.2 °F 60% 30.08 in 10.0 mi NE 4.6 mph - N/A   Overcast
7:15 PM 33.8 °F 27.7 °F 21.2 °F 60% 30.07 in 10.0 mi ENE 6.9 mph - N/A   Overcast
7:35 PM 33.8 °F 28.6 °F 21.2 °F 60% 30.06 in 10.0 mi ENE 5.8 mph - N/A   Overcast
7:55 PM 33.8 °F 28.6 °F 21.2 °F 60% 30.05 in 10.0 mi NE 5.8 mph - N/A   Overcast
8:15 PM 32.0 °F 26.4 °F 21.2 °F 64% 30.04 in 10.0 mi ENE 5.8 mph - N/A   Overcast
8:35 PM 32.0 °F 25.6 °F 21.2 °F 64% 30.04 in 10.0 mi ENE 6.9 mph - N/A   Overcast
8:55 PM 32.0 °F 26.4 °F 23.0 °F 69% 30.04 in 10.0 mi NE 5.8 mph - N/A   Overcast
9:15 PM 32.0 °F 25.6 °F 23.0 °F 69% 30.03 in 10.0 mi NNE 6.9 mph - N/A   Overcast
9:35 PM 32.0 °F 25.6 °F 24.8 °F 75% 30.02 in 10.0 mi NNE 6.9 mph - N/A   Overcast
9:55 PM 30.2 °F 23.4 °F 24.8 °F 80% 30.01 in 10.0 mi North 6.9 mph - N/A   Overcast
10:15 PM 30.2 °F 23.4 °F 23.0 °F 75% 30.00 in 10.0 mi North 6.9 mph - N/A   Overcast
10:35 PM 30.2 °F 24.3 °F 23.0 °F 75% 29.98 in 10.0 mi NNE 5.8 mph - N/A   Overcast
10:55 PM 30.2 °F 24.3 °F 23.0 °F 75% 29.97 in 10.0 mi North 5.8 mph - N/A   Overcast
11:15 PM 30.2 °F 22.6 °F 23.0 °F 75% 29.96 in 10.0 mi NNE 8.1 mph - N/A   Overcast
11:35 PM 30.2 °F 23.4 °F 24.8 °F 80% 29.94 in 10.0 mi NNE 6.9 mph - N/A   Overcast
11:55 PM 30.2 °F 22.6 °F 24.8 °F 80% 29.94 in 10.0 mi North 8.1 mph - N/A   Overcast